Wind_Speed
43 39 37 33 30 29 29 29 28 28 27 24 21 22 20 17 13 13 11 10 8 6
43 41 39 35 31 29 28 27 27 27 28 27 24 22 22 21 18 14 14 13 11 9
41 41 38 33 30 28 27 26 28 25 26 28 27 25 25 25 22 21 19 17 15 13
36 37 36 35 33 31 31 29 26 25 24 25 29 27 27 27 24 23 21 19 17 16
34 34 36 36 36 33 31 30 32 29 27 26 27 24 27 28 27 26 23 21 16 16
24 33 35 36 36 33 32 32 30 30 30 31 30 29 26 27 29 28 26 24 24 19
21 24 30 34 33 34 32 30 31 30 27 27 26 27 26 25 26 27 26 25 23 22
20 23 30 33 35 32 32 32 32 31 28 27 26 26 25 25 27 28 27 27 26 24
27 28 26 33 37 34 34 33 33 33 32 28 28 27 25 24 24 24 25 25 24 23
24 30 31 28 34 37 35 35 34 32 30 30 28 25 25 24 24 25 25 25 26 26
24 29 25 30 34 36 35 38 37 34 31 31 28 24 23 22 23 25 26 26 27 28
27 31 27 30 32 39 33 34 35 35 34 32 30 25 21 21 22 25 28 28 28 28
27 35 20 26 35 43 36 37 36 35 30 24 16 17 12 9 2 9 17 28 30 29
35 29 18 23 39 42 37 33 26 22 19 23 24 20 20 10 6 23 24 21 26 30
Wind_Direction
221 224 228 231 230 229 230 231 235 235 232 232 230 231 228 232 230 224 219 219 230 226
220 223 226 232 234 235 238 242 244 241 238 239 235 231 231 231 226 226 230 238 238 250
221 228 231 236 238 238 239 244 249 244 240 243 240 235 233 234 232 229 234 235 239 243
225 229 232 237 240 241 239 239 245 250 249 249 246 241 233 232 235 230 232 231 236 241
227 232 235 238 241 244 243 243 244 243 246 245 247 249 244 232 233 234 233 235 235 236
246 229 232 241 243 242 243 244 246 245 246 244 244 248 250 243 247 234 236 237 236 239
325 273 252 241 240 245 242 242 238 242 245 243 243 241 244 243 238 236 240 239 243 241
321 324 277 249 244 240 241 239 238 237 241 241 240 240 243 241 237 238 240 242 245 244
299 307 300 262 254 238 238 239 237 237 236 239 238 242 246 249 241 243 242 246 247 248
296 300 300 279 251 235 231 235 234 234 234 237 236 241 239 241 245 248 247 250 254 257
288 295 298 279 248 231 224 229 229 231 230 232 236 240 238 241 247 252 254 257 260 260
317 315 294 258 251 231 216 221 225 231 229 228 229 230 233 232 239 249 254 262 264 261
342 353 275 246 242 235 219 217 219 223 225 217 199 208 183 193 226 316 294 278 266 262
358 360 11 315 251 233 228 214 205 193 187 182 176 162 161 163 301 295 286 259 270 268
Height
795 799 803 807 809 812 813 815 817 819 821 823 824 825 827 828 829 830 831 831 831 831
789 792 796 800 805 808 811 814 816 818 819 820 821 822 823 825 826 827 828 829 829 829
786 791 795 799 803 806 808 810 812 813 817 818 818 819 820 821 823 825 826 827 827 827
784 787 790 793 797 800 801 802 805 808 811 814 815 814 815 816 819 820 823 824 825 825
780 784 786 787 789 792 795 798 799 802 804 806 808 810 810 812 814 817 819 821 822 822
786 776 776 782 782 784 787 789 793 796 798 800 800 803 806 807 810 812 815 817 818 819
784 785 783 774 774 781 782 784 784 788 791 793 796 797 799 802 805 808 810 813 815 815
779 781 778 775 770 768 775 778 781 783 785 787 790 793 796 797 801 805 807 809 811 812
768 766 770 770 768 762 765 772 774 776 777 782 785 788 791 795 799 802 803 805 807 808
757 755 758 761 763 759 756 764 766 770 773 776 780 783 785 788 792 796 797 799 801 803
748 748 741 752 750 749 749 755 757 762 765 770 773 777 779 782 786 790 792 794 796 798
735 726 723 738 739 740 741 749 750 754 757 763 767 770 774 776 779 782 784 787 788 790
722 716 719 720 727 734 731 737 740 744 751 758 761 763 767 773 775 778 779 781 781 783
697 708 722 720 724 722 723 724 731 738 746 751 752 756 760 765 764 765 765 766 772 774